Weather in El Médano

Spain     28°02′45″N   16°32′15″W
temp.,
°C
wind,
m/s
gust,
m/s
humid.,
%
clouds,
%
prec.,
mm/h
press.,
hPa
HPBL,
m
16 june, wed
wed1601:00+20s23840 0.0 1019216
04:00+20s23810 0.0 1017286
07:00+19sw44820 0.0 1017264
10:00+20sse33780 0.0 1018334
13:00+21ssw227717 0.0 1019348
16:00+21e127612 0.0 1018488
19:00+21ne337831 0.0 1018475
22:00+21ne348136 0.0 1019240
17 june, thu
thu1701:00+20nw12836 0.0 1019237
04:00+20ne78822 0.0 1018397
07:00+20ne45835 0.0 1018200
10:00+21ene44772 0.0 1019399
13:00+21ene99775 0.0 1019497
16:00+22ene89724 0.0 1018511
19:00+21ene897712 0.0 1018449
22:00+20ene67830 0.0 1019273
18 june, fri
fri1801:00+21ne45825 0.0 1019162
04:00+20ne1098426 0.0 1018442
07:00+20ne1097893 0.0 1018470
10:00+20ene12106832 0.0 1019755
13:00+21ene131264100 0.0 1019834
16:00+21ene14126212 0.0 1018783
19:00+21ene121263100 0.0 1018616
22:00+20ene111167100 0.0 1020548
19 june, sat
sat1901:00+19ne1096850 0.0 1021513
04:00+19ne997042 0.0 1019560
07:00+18ne776972 0.0 1020518
10:00+20ne986355 0.0 1021860
13:00+21ene1112645 0.0 1021864
16:00+21ene1212685 0.0 1020763
19:00+20ene1211675 0.0 1020580
22:00+19ne1213695 0.0 1021549
20 june, sun
sun2001:00+19ne1112690 0.0 1021493
04:00+19ne76730 0.0 1020485
07:00+18ne55700 0.0 1020471
10:00+20ene109640 0.0 1021650
13:00+21ene1111670 0.0 1021687
16:00+21ene1113680 0.0 1020600
19:00+21ene1012700 0.0 1019542
22:00+20ene810760 0.0 1020400